Home   Weather   Augusta   Past weeks

Flag for USA Past Weather in Augusta, Georgia, USA — Yesterday and Last 2 Weeks

Now
63 °F

Passing clouds.


Feels Like: 63 °F
Forecast: 51 / 64 °F
Wind: 14 mph from Northwest

Location: Daniel Field

Current Time: Jan 23, 2017 at 4:19:19 pm

Latest Report: Jan 23, 2017 at 2:53 pm


Visibility: 10 mi

Pressure: 29.31 "Hg

Humidity: 58%

Dew Point: 48 °F

Location of AugustaLocation

Past Weather in Augusta — Graph

°F

Augusta Temperature Yesterday

Maximum temperature yesterday: 64 °F (at 11:53 am)
Minimum temperature yesterday: 56 °F (at 11:53 pm)
Average temperature yesterday: 61 °F

High & Low Weather Summary for the Past Weeks

 TemperatureHumidityPressure
High79 °F (Jan 18, 2:53 pm)91% (Jan 21, 11:06 am)30.77 "Hg (Jan 21, 11:06 am)
Low27 °F (Jan 9, 7:53 am)19% (Jan 9, 3:53 pm)29.23 "Hg (Jan 23, 5:53 am)
Average59 °F70%30.09 "Hg
* Reported Jan 8 2:53 pm — Jan 23 2:53 pm, Augusta, Weather by CustomWeather, © 2017

Note: Actual official high and low records may vary slightly from our data, if they occured in-between our weather recording intervals... More about our weather records

Advertising

Augusta Weather History for the Previous 24 Hours

Scroll right to see more
 ConditionsComfort  
Time TempWeatherWind HumidityBarometerVisibility
2:53 pm
Mon, Jan 23
63 °FPassing clouds.14 mph58%29.31 "Hg10 mi
1:53 pm58 °FOvercast.6 mph67%29.31 "Hg10 mi
12:53 pm57 °FLight rain. Mostly cloudy.6 mph67%29.31 "Hg10 mi
11:53 am58 °FMostly cloudy.9 mph60%29.31 "Hg10 mi
11:08 am55 °FScattered clouds.7 mph67%29.32 "Hg10 mi
10:53 am56 °FPartly sunny.3 mph70%29.31 "Hg10 mi
10:20 am54 °FBroken clouds.5 mph72%29.32 "Hg10 mi
9:53 am53 °FOvercast.8 mph77%29.29 "Hg10 mi
9:38 am52 °FOvercast.3 mph83%29.30 "Hg10 mi
8:53 am51 °FPartly sunny.6 mph86%29.26 "Hg10 mi
8:22 am51 °FMore clouds than sun.5 mph86%29.27 "Hg10 mi
8:00 am51 °FMostly cloudy.No wind83%29.26 "Hg10 mi
7:11 am51 °FLight rain. Mostly cloudy.5 mph83%29.25 "Hg10 mi
6:53 am51 °FLight rain. Mostly cloudy.5 mph83%29.24 "Hg9 mi
6:31 am52 °FLight rain. Overcast.5 mph77%29.24 "Hg10 mi
6:08 am52 °FMostly cloudy.5 mph77%29.24 "Hg10 mi
5:53 am52 °FMostly cloudy.6 mph77%29.23 "Hg10 mi
5:26 am52 °FPassing clouds.6 mph77%29.24 "Hg10 mi
4:53 am51 °FClear.5 mph80%29.23 "Hg10 mi
3:53 am52 °FClear.8 mph77%29.25 "Hg10 mi
2:53 am52 °FPassing clouds.8 mph80%29.28 "Hg10 mi
1:53 am53 °FPassing clouds.7 mph77%29.29 "Hg10 mi
12:53 am54 °FPassing clouds.6 mph74%29.29 "Hg10 mi
11:53 pm
Sun, Jan 22
56 °FClear.10 mph72%29.30 "Hg10 mi
11:29 pm57 °FPassing clouds.13 mph72%29.31 "Hg10 mi
10:53 pm59 °FMostly cloudy.9 mph78%29.29 "Hg10 mi
10:28 pm61 °FMostly cloudy.15 mph81%29.28 "Hg10 mi
10:17 pm62 °FMostly cloudy.13 mph83%29.28 "Hg10 mi
9:53 pm61 °FPassing clouds.6 mph90%29.26 "Hg10 mi
8:53 pm61 °FLight rain. Mostly cloudy.6 mph87%29.25 "Hg10 mi
8:28 pm60 °FPartly cloudy.6 mph90%29.28 "Hg10 mi
7:53 pm61 °FRain. Fog.7 mph87%29.28 "Hg6 mi
6:53 pm61 °FLight rain. Fog.8 mph87%29.31 "Hg4 mi
6:43 pm61 °FHeavy rain. Fog.6 mph87%29.34 "Hg3 mi
6:31 pm61 °FHeavy rain. Fog.5 mph87%29.33 "Hg3 mi
6:00 pm62 °FHeavy rain. Fog.13 mph86%29.33 "Hg2 mi
5:26 pm62 °FRain. Fog.8 mph90%29.35 "Hg4 mi
5:17 pm62 °FHeavy rain. Fog.9 mph90%29.35 "Hg3 mi
4:53 pm62 °FStrong thunderstorms. Fog.10 mph90%29.36 "Hg3 mi
4:34 pm62 °FThunderstorms. Fog.9 mph90%29.35 "Hg4 mi
4:18 pm63 °FStrong thunderstorms. Fog.10 mph87%29.38 "Hg3 mi
Weather by CustomWeather, © 2017

See weather overviewHow to use our weather pages